Location: Aulagny
(45.1643°N, 4.3096°E)
Time: 03:02:27
(UTC+00:00)

Meteor 2-10 - Pass Details

Date: 21 October 2019
Orbit: 738 x 869 km, 81.2° (Epoch: 17 November)

Event Time Altitude Azimuth Distance (km) Brightness Sun altitude
Rises 17:12:37 0° 175° (S) 3,187 7.3 -5.0°
Reaches altitude 10° 17:15:00 10° 170° (S) 2,256 6.5 -5.5°
Maximum altitude 17:19:53 52° 95° (E) 916 4.1 -6.3°
Drops below altitude 10° 17:24:46 10° 20° (NNE) 2,257 6.2 -7.2°
Sets 17:27:09 0° 16° (NNE) 3,188 7.0 -7.6°
